WMT8DU EGGW-LRIA

Flight info

Callsign WMT8DU
Flight time N/A
Altitude 37000
Route MATCH Q295 BRAIN P44 DAGGA M604 GASBA M197 REDFA DCT TACHA DCT GISEB DCT BADGO DCT SWALM DCT VELIS DCT OKG DCT KREMI DCT KUSIS DCT HUMOR DCT TOMUC P133 ARPIG LRIA/32
Aircraft A320/M-SDE3FGHIRWY/LB1

Departure

Time N/A
Airport London Luton Airport (EGGW)

Arrival

Time 2026-04-10 10:29
Airport Iaşi International Airport (LRIA)
Time Latitude Longitude Altitude Speed Heading
2026-04-10 10:18 47.31767 27.31815 11800 ft 278 kts 146°
2026-04-10 10:18 47.30131 27.33370 11736 ft 281 kts 146°
2026-04-10 10:19 47.28461 27.34946 11671 ft 281 kts 147°
2026-04-10 10:19 47.26813 27.36494 11602 ft 281 kts 147°
2026-04-10 10:19 47.25181 27.38024 11536 ft 282 kts 147°
2026-04-10 10:19 47.23503 27.39591 11304 ft 280 kts 147°
2026-04-10 10:20 47.21897 27.41085 11055 ft 276 kts 147°
2026-04-10 10:20 47.20270 27.42600 10796 ft 273 kts 147°
2026-04-10 10:20 47.18672 27.44093 10544 ft 270 kts 147°
2026-04-10 10:20 47.17073 27.45591 10258 ft 269 kts 147°
2026-04-10 10:21 47.15518 27.47043 9986 ft 268 kts 148°
2026-04-10 10:21 47.13947 27.48508 9657 ft 267 kts 147°
2026-04-10 10:21 47.12387 27.49968 9331 ft 266 kts 148°
2026-04-10 10:21 47.10820 27.51429 9006 ft 266 kts 148°
2026-04-10 10:22 47.09246 27.52855 8680 ft 266 kts 148°
2026-04-10 10:22 47.07660 27.54259 8364 ft 266 kts 149°
2026-04-10 10:22 47.06077 27.55652 8061 ft 265 kts 149°
2026-04-10 10:22 47.04484 27.57050 7756 ft 265 kts 149°
2026-04-10 10:23 47.02866 27.58468 7076 ft 276 kts 149°
2026-04-10 10:23 47.01207 27.59926 6524 ft 277 kts 148°
2026-04-10 10:23 46.99623 27.61466 6123 ft 267 kts 134°
2026-04-10 10:23 46.98708 27.63707 5776 ft 250 kts 99°
2026-04-10 10:24 46.98742 27.66107 5447 ft 233 kts 68°
2026-04-10 10:24 46.99479 27.68180 5125 ft 230 kts 54°
2026-04-10 10:24 47.00313 27.70179 4791 ft 230 kts 54°
2026-04-10 10:24 47.01147 27.72181 4470 ft 230 kts 54°
2026-04-10 10:25 47.02095 27.74053 4126 ft 226 kts 34°
2026-04-10 10:25 47.03529 27.74739 3810 ft 217 kts 353°
2026-04-10 10:25 47.04914 27.74023 3539 ft 214 kts 332°
2026-04-10 10:25 47.06205 27.72904 3233 ft 212 kts 328°
2026-04-10 10:26 47.07405 27.71767 2862 ft 201 kts 327°
2026-04-10 10:26 47.08539 27.70684 2579 ft 188 kts 327°
2026-04-10 10:26 47.09600 27.69691 2358 ft 174 kts 327°
2026-04-10 10:26 47.10589 27.68779 2077 ft 160 kts 328°
2026-04-10 10:27 47.11474 27.67973 1841 ft 141 kts 328°
2026-04-10 10:27 47.12284 27.67238 1629 ft 135 kts 327°
2026-04-10 10:27 47.13081 27.66519 1405 ft 133 kts 327°
2026-04-10 10:27 47.13866 27.65814 1198 ft 133 kts 327°
2026-04-10 10:28 47.14389 27.65340 1023 ft 131 kts 328°
2026-04-10 10:28 47.15166 27.64628 814 ft 132 kts 328°
2026-04-10 10:28 47.15949 27.63941 641 ft 131 kts 327°
2026-04-10 10:28 47.16981 27.63017 403 ft 130 kts 327°
2026-04-10 10:29 47.17499 27.62557 356 ft 122 kts 328°
2026-04-10 10:29 47.18081 27.62043 375 ft 73 kts 328°
2026-04-10 10:29 47.18443 27.61716 391 ft 54 kts 329°
2026-04-10 10:29 47.18736 27.61459 403 ft 44 kts 328°
2026-04-10 10:30 47.18907 27.61357 410 ft 10 kts 320°
2026-04-10 10:30 47.18896 27.61329 410 ft 4 kts 179°
2026-04-10 10:30 47.18846 27.61367 408 ft 11 kts 148°
2026-04-10 10:30 47.18765 27.61441 404 ft 16 kts 148°
2026-04-10 10:31 47.18652 27.61545 399 ft 22 kts 148°
2026-04-10 10:31 47.18504 27.61672 393 ft 27 kts 150°
2026-04-10 10:31 47.18336 27.61817 386 ft 29 kts 149°
2026-04-10 10:31 47.18148 27.61984 378 ft 34 kts 148°
2026-04-10 10:32 47.17952 27.62160 369 ft 30 kts 149°
2026-04-10 10:32 47.17868 27.62213 370 ft 11 kts 203°
2026-04-10 10:32 47.17820 27.62110 369 ft 9 kts 244°
2026-04-10 10:32 47.17791 27.62024 371 ft 9 kts 244°
2026-04-10 10:33 47.17758 27.61940 371 ft 10 kts 221°
2026-04-10 10:33 47.17693 27.61955 372 ft 11 kts 153°
2026-04-10 10:33 47.17615 27.62012 372 ft 14 kts 153°
2026-04-10 10:33 47.17533 27.62036 372 ft 10 kts 238°
2026-04-10 10:34 47.17530 27.61986 372 ft 4 kts 275°
2026-04-10 10:34 47.17530 27.61975 372 ft 0 kts 275°
2026-04-10 10:42 47.17530 27.61976 371 ft 0 kts 275°